Station 44089 - Wallops Island, VA (224) Image indicating link to RSS feed of recent meteorological observations for station 44089


Conditions at 44089 as of
(12:26 pm EDT)
1626 GMT on 04/14/2024:
     

Click on the graph icon in the table below to see a time series plot of the last five days of that observation.

5-day plot - Wave Height Wave Height (WVHT): 2.6 ft
5-day plot - Dominant Wave Period Dominant Wave Period (DPD): 12 sec
5-day plot - Average Wave Period Average Period (APD): 4.1 sec
5-day plot - Mean Wave Direction Mean Wave Direction (MWD): E ( 87 deg true )
5-day plot - Water Temperature Water Temperature (WTMP): 51.6 °F
Previous observations
TIME
(EDT)
5-day plot - Wind Direction
WDIR
 
5-day plot - Wind Speed
WSPD
kts
5-day plot - Wind Gust
GST
kts
5-day plot - Wave Height
WVHT
ft
5-day plot - Dominant Wave Period
DPD
sec
5-day plot - Average Wave Period
APD
sec
5-day plot - Mean Wave Direction
MWD
 
5-day plot - Atmospheric Pressure
PRES
in
5-day plot - Pressure Tendency
PTDY
in
5-day plot - Air Temperature
ATMP
°F
5-day plot - Water Temperature
WTMP
°F
5-day plot - Dew Point
DEWP
°F
5-day plot - Salinity
SAL
psu
5-day plot - Visibility
VIS
nmi
5-day plot - Tide (above MLLW)
TIDE
ft
2024-04-14 11:56 am--- 2.3 124.4 E--- 52.0----
2024-04-14 11:26 am--- 2.3 95.3ESE--- 52.3----
2024-04-14 10:56 am--- 2.0 126.0 E--- 52.5----
2024-04-14 10:26 am--- 2.0 96.5 E--- 52.3----
2024-04-14 09:56 am--- 2.0 86.4ESE--- 52.3----
2024-04-14 09:26 am--- 2.0 107.0 E--- 52.2----
2024-04-14 08:56 am--- 2.0 116.8 E--- 52.2----
2024-04-14 08:26 am--- 2.0 86.7 SE--- 52.0----
2024-04-14 07:56 am--- 2.0 116.9 E--- 51.8----
2024-04-14 07:26 am--- 2.3 86.8 SE--- 51.8----
2024-04-14 06:56 am--- 2.3 96.9ESE--- 52.0----
2024-04-14 06:26 am--- 2.0 106.7 E--- 51.8----
2024-04-14 05:56 am--- 2.3 86.6 SE--- 51.8----
2024-04-14 05:26 am--- 2.3 126.9 E--- 51.6----
2024-04-14 04:56 am--- 2.3 106.8 E--- 51.6----
2024-04-14 04:26 am--- 2.3 96.5ESE--- 51.6----
2024-04-14 03:56 am--- 2.3 106.5 E--- 51.4----
2024-04-14 03:26 am--- 2.3 106.7 E--- 51.3----
2024-04-14 02:56 am--- 2.3 136.7 E--- 51.1----
2024-04-14 02:26 am--- 2.3 106.5ESE--- 51.1----
2024-04-14 01:56 am--- 2.3 116.7 E--- 51.1----
2024-04-14 01:26 am--- 2.6 106.8ESE--- 51.1----
2024-04-14 12:56 am--- 2.6 86.8 SE--- 51.1----
2024-04-14 12:26 am--- 2.3 86.9 SE--- 51.3----
2024-04-13 11:56 pm--- 2.3 86.8 SE--- 51.3----
2024-04-13 11:26 pm--- 2.3 116.8 E--- 51.4----
2024-04-13 10:56 pm--- 2.3 86.4 SE--- 51.4----
2024-04-13 10:26 pm--- 2.3 116.6ESE--- 51.4----
2024-04-13 09:56 pm--- 2.6 116.4 E--- 51.6----
2024-04-13 09:26 pm--- 2.3 105.8ESE--- 51.6----
2024-04-13 08:56 pm--- 2.6 95.5 SE--- 51.6----
2024-04-13 08:26 pm--- 2.6 95.4ESE--- 51.6----
2024-04-13 07:56 pm--- 3.0 94.8 SE--- 51.6----
2024-04-13 07:26 pm--- 3.0 104.9 E--- 51.8----
2024-04-13 06:56 pm--- 3.0 114.8ESE--- 51.8----
2024-04-13 06:26 pm--- 3.3 94.3 SE--- 51.6----
2024-04-13 05:56 pm--- 3.6 104.2ESE--- 51.6----
2024-04-13 05:26 pm--- 3.6 94.4 SE--- 51.4----
2024-04-13 04:56 pm--- 3.6 104.4ESE--- 51.3----
2024-04-13 04:26 pm--- 3.9 104.5ESE--- 51.3----
2024-04-13 03:56 pm--- 4.3 114.2ESE--- 51.3----
2024-04-13 03:26 pm--- 4.3 44.3WNW--- 51.3----
2024-04-13 02:56 pm--- 4.3 114.3ESE--- 51.3----
2024-04-13 02:26 pm--- 4.6 114.3ESE--- 51.3----
2024-04-13 01:56 pm--- 4.3 114.5ESE--- 51.3----
2024-04-13 01:26 pm--- 4.3 104.4ESE--- 51.3----
2024-04-13 12:56 pm--- 4.3 114.6 SE--- 51.1----
2024-04-13 12:26 pm--- 4.6 114.5ESE--- 51.1----
2024-04-13 11:56 am--- 4.6 104.5ESE--- 51.1----

Detailed Wave Summary
for 44089 as of (12:26 pm EDT)
1626 GMT on 04/14/2024:

These wave data are displayed in rounded times.

     

Click on the graph icon in the table below to see a time series plot of the last five days of that observation.

5-day plot - Significant Wave Height Significant Wave Height (WVHT): 2.6 ft
5-day plot - Swell Height Swell Height (SwH): 1.0 ft
5-day plot - Swell Period Swell Period (SwP): 11.8 sec
5-day plot - Swell Direction Swell Direction (SwD): E
5-day plot - Wind Wave Height Wind Wave Height (WWH): 2.3 ft
5-day plot - Wind Wave Period Wind Wave Period (WWP): 8.3 sec
5-day plot - Wind Wave Direction Wind Wave Direction (WWD):ESE
5-day plot - Average Wave Period Average Wave Period (APD): 4.1 sec
Previous observations
TIME
(EDT)
5-day plot - Wave Height
WVHT
ft
5-day plot - Swell Height
SwH
ft
5-day plot - Swell Period
SwP
sec
5-day plot - Swell Direction
SwD
 
5-day plot - Wind Wave Height
WWH
ft
5-day plot - Wind Wave Period
WWP
sec
5-day plot - Wind Wave Direction
WWD
 
5-day plot - Wave Steepness
STEEPNESS
 
5-day plot - Average Wave Period
APD
sec
2024-04-14 11:56 am 2.3 1.0 11.8 E 2.3 9.9 E N/A 4.4
2024-04-14 11:26 am 2.3 1.0 12.5 E 2.3 9.1 ESE N/A 5.3
2024-04-14 10:56 am 2.0 1.0 11.8 E 2.0 9.1 ESE N/A 6.0
2024-04-14 10:26 am 2.0 1.0 10.5 E 1.6 9.1 E N/A 6.5
2024-04-14 09:56 am 2.0 0.7 11.8 E 1.6 8.3 ESE N/A 6.4
2024-04-14 09:26 am 2.0 1.0 11.8 E 2.0 9.9 E N/A 7.0
2024-04-14 08:56 am 2.0 1.0 11.1 E 1.6 9.1 ESE N/A 6.8
2024-04-14 08:26 am 2.0 1.0 11.1 E 1.6 8.3 SE N/A 6.7
2024-04-14 07:56 am 2.0 1.0 11.1 E 2.0 9.9 E N/A 6.9
2024-04-14 07:26 am 2.3 1.0 10.5 E 2.0 8.3 SE N/A 6.8
2024-04-14 06:56 am 2.3 1.0 11.8 E 2.0 9.1 ESE N/A 6.9
2024-04-14 06:26 am 2.0 1.0 11.8 E 2.0 9.9 E N/A 6.7
2024-04-14 05:56 am 2.3 1.0 12.5 E 2.0 8.3 SE N/A 6.6
2024-04-14 05:26 am 2.3 1.0 11.8 E 2.0 9.9 ESE N/A 6.9
2024-04-14 04:56 am 2.3 1.0 11.8 E 2.0 9.9 E N/A 6.8
2024-04-14 04:26 am 2.3 1.0 11.8 E 2.0 9.1 ESE N/A 6.5
2024-04-14 03:56 am 2.3 1.0 11.8 E 2.0 9.9 E N/A 6.5
2024-04-14 03:26 am 2.3 1.0 11.1 E 2.0 9.9 E N/A 6.7
2024-04-14 02:56 am 2.3 1.3 12.5 E 2.0 8.3 SE N/A 6.7
2024-04-14 02:26 am 2.3 1.0 10.5ESE 2.0 9.9 ESE N/A 6.5
2024-04-14 01:56 am 2.3 1.0 10.5 E 2.3 9.1 SE N/A 6.7
2024-04-14 01:26 am 2.6 1.0 10.5 E 2.3 9.9 ESE N/A 6.8
2024-04-14 12:56 am 2.6 1.0 11.1 E 2.3 7.7 SE N/A 6.8
2024-04-14 12:26 am 2.3 1.0 10.5 E 2.3 8.3 SE N/A 6.9
2024-04-13 11:56 pm 2.3 1.0 10.5 E 2.3 8.3 SE N/A 6.8
2024-04-13 11:26 pm 2.3 1.0 11.1 E 2.3 9.1 ESE N/A 6.8
2024-04-13 10:56 pm 2.3 1.0 11.8 E 2.3 7.7 SE N/A 6.4
2024-04-13 10:26 pm 2.3 1.3 10.5ESE 2.3 9.9 E N/A 6.6
2024-04-13 09:56 pm 2.6 1.3 10.5 E 2.3 9.1 SE N/A 6.4
2024-04-13 09:26 pm 2.3 1.0 10.5ESE 2.3 9.9 ESE N/A 5.8
2024-04-13 08:56 pm 2.6 1.0 10.5ESE 2.3 9.1 SE N/A 5.5
2024-04-13 08:26 pm 2.6 1.3 12.5 E 2.6 9.1 ESE AVERAGE 5.4
2024-04-13 07:56 pm 3.0 1.0 11.8 E 2.6 9.1 SE AVERAGE 4.8
2024-04-13 07:26 pm 3.0 1.3 10.5 E 2.6 9.9 E AVERAGE 4.9
2024-04-13 06:56 pm 3.0 1.3 10.5ESE 2.6 9.1 SE AVERAGE 4.8
2024-04-13 06:26 pm 3.3 1.0 10.5 E 3.0 9.1 SE AVERAGE 4.3
2024-04-13 05:56 pm 3.6 1.0 11.8 E 3.3 9.9 ESE AVERAGE 4.2
2024-04-13 05:26 pm 3.6 1.3 11.1ESE 3.3 9.1 SE AVERAGE 4.4
2024-04-13 04:56 pm 3.6 1.3 10.5 E 3.6 9.9 ESE AVERAGE 4.4
2024-04-13 04:26 pm 3.9 1.0 10.5 E 3.9 9.9 ESE AVERAGE 4.5
2024-04-13 03:56 pm 4.3 1.3 10.5ESE 3.9 3.9 WNW AVERAGE 4.2
2024-04-13 03:26 pm 4.3 1.3 10.5ESE 3.9 3.9 WNWVERY_STEEP 4.3
2024-04-13 02:56 pm 4.3 1.6 10.5ESE 4.3 4.0 WNW AVERAGE 4.3
2024-04-13 02:26 pm 4.6 1.3 10.5ESE 4.3 3.6 WNW AVERAGE 4.3
2024-04-13 01:56 pm 4.3 1.6 10.5ESE 3.9 9.9 ESE AVERAGE 4.5
2024-04-13 01:26 pm 3.9 1.3 11.1ESE 3.9 9.9 ESE AVERAGE 4.4
2024-04-13 12:56 pm 4.3 1.6 10.5 SE 3.9 9.9 SE AVERAGE 4.6
2024-04-13 12:26 pm 4.6 1.6 10.5ESE 4.3 4.0 WSW AVERAGE 4.5
2024-04-13 11:56 am 4.6 1.6 11.8 E 4.6 9.9 ESE AVERAGE 4.5

Plot of wave energy versus frequency (and period)